Wind_Speed
17 17 18 18 17 17 16 16 16 15 15 14 14 13 12 12 11 11 11 10 10 9 9 10 10 9 7 5 5 5 5 5 5 7 7 6 8 8 7 10 9 8 8 7 7 6 6 5 5 7 7 7 5 5 6 4 6 3 1 1 3 4 1 1 3 4 5 6 6 11 13 8 6 8 6 4 4 5 3 4 6 5 6 6 5 9 10 9
17 18 18 18 18 17 16 16 16 15 15 14 13 12 12 12 11 11 11 11 10 9 10 10 11 9 7 5 4 5 5 5 5 6 7 7 7 8 8 10 9 8 7 8 7 4 2 3 6 8 7 7 6 5 4 4 6 2 1 2 4 1 3 6 8 8 5 6 9 11 11 8 7 10 9 4 6 9 5 5 9 7 8 9 9 9 8 8
17 18 18 18 18 18 17 16 16 15 14 14 13 12 12 12 11 11 11 11 10 10 10 11 11 10 7 5 4 4 4 5 5 6 9 8 7 8 9 9 8 7 6 7 8 5 3 4 7 8 8 8 6 6 6 4 5 2 1 2 3 1 6 11 13 10 7 5 9 11 9 6 7 10 9 5 6 10 9 9 11 12 12 13 13 12 9 9
17 18 18 19 19 18 18 17 16 15 14 13 12 12 12 12 11 11 11 11 10 10 10 11 11 10 8 6 4 4 4 4 5 8 8 8 8 8 8 8 7 7 6 6 7 8 5 3 6 8 7 6 7 7 7 7 5 2 1 1 3 5 5 9 11 9 6 5 6 10 7 4 6 7 7 6 4 6 9 11 14 15 17 16 15 15 12 10
16 18 18 19 19 18 17 16 16 14 14 13 12 12 12 11 11 11 11 11 11 10 11 11 11 10 8 6 5 5 5 2 4 10 9 8 9 8 8 7 7 6 6 6 6 7 6 4 6 6 6 4 8 5 6 9 5 2 2 4 5 6 5 5 5 7 7 5 7 10 5 3 8 6 7 7 5 3 3 4 9 12 16 18 16 15 14 13
16 18 18 17 17 17 16 16 15 14 13 13 12 12 12 11 11 11 11 11 11 11 11 11 11 11 8 7 6 7 7 1 2 9 10 8 9 8 8 6 7 6 6 7 6 6 5 5 6 6 7 3 8 5 5 9 6 2 1 6 7 6 5 3 2 5 5 4 5 5 3 4 6 4 8 12 11 6 2 1 2 3 7 12 12 12 13 14
17 18 18 17 16 16 16 15 14 14 13 13 13 12 12 11 11 11 11 12 12 11 11 11 11 11 9 7 7 8 9 5 4 7 9 8 8 8 7 6 7 6 6 6 5 4 4 7 8 9 7 3 8 7 5 6 7 3 0 4 5 6 6 2 2 4 4 3 2 2 2 2 3 3 5 11 16 13 9 10 7 2 3 7 9 9 10 12
17 19 18 17 16 15 15 15 14 14 14 13 13 12 12 11 11 11 12 12 12 12 11 11 12 11 9 8 7 7 11 8 3 5 9 8 8 8 7 7 6 6 7 7 6 4 5 8 10 9 5 1 5 6 5 6 5 4 1 6 4 6 5 3 3 3 3 1 1 1 1 4 5 3 4 11 16 15 14 15 14 9 7 8 9 9 9 11
18 19 19 18 17 16 15 15 14 14 13 13 12 12 11 11 11 11 12 12 12 12 12 12 12 12 10 9 7 5 9 10 5 4 9 9 9 9 8 7 6 7 5 5 8 6 6 8 8 8 2 1 4 5 5 4 2 2 5 8 6 6 5 4 5 3 3 1 1 1 4 5 5 4 7 14 19 18 15 15 17 15 12 12 12 13 13 12
18 19 19 18 18 17 16 15 14 14 13 13 12 11 11 11 11 11 12 12 12 12 12 12 13 12 10 9 7 4 5 9 7 6 9 10 10 9 9 7 6 7 3 3 7 6 6 4 2 6 1 2 5 4 3 2 1 4 8 9 8 7 5 4 4 4 4 2 1 1 4 4 4 1 5 8 10 14 16 15 17 17 16 16 16 16 17 16
18 19 19 18 18 17 16 15 14 14 13 13 12 11 11 11 11 11 12 12 13 12 12 13 13 12 10 9 7 5 5 8 7 8 10 11 11 9 8 7 6 7 4 1 6 7 6 3 0 3 2 2 6 4 4 4 3 6 9 8 7 6 5 4 4 5 4 2 2 1 6 5 3 3 11 12 6 9 16 16 16 18 18 18 18 18 19 19
18 19 19 18 17 16 15 14 14 13 13 12 12 11 11 11 11 11 12 12 12 12 13 13 13 12 10 10 10 8 6 8 8 9 12 12 11 8 7 7 5 6 6 2 5 7 6 5 3 1 1 4 6 4 4 6 5 6 7 4 5 5 4 7 6 6 5 2 2 1 4 7 5 9 24 20 13 10 12 13 13 15 15 14 16 18 19 20
17 18 18 17 16 16 15 14 14 13 12 12 11 11 11 11 11 12 12 12 12 12 13 13 13 12 10 8 9 8 6 8 10 11 14 13 10 9 6 6 5 5 6 4 4 5 5 6 5 2 2 2 4 5 5 6 5 5 4 1 4 3 3 9 9 6 5 3 3 2 2 6 5 15 25 17 16 15 12 12 13 13 13 12 13 16 19 21
17 17 17 17 15 15 15 15 14 13 12 11 11 11 11 11 12 12 12 12 12 13 13 13 12 12 10 5 5 7 7 8 11 13 14 13 10 8 6 5 4 4 4 3 4 4 5 7 5 2 2 5 7 8 5 4 3 3 2 1 2 2 2 6 8 8 5 3 6 3 1 7 6 7 12 13 15 16 14 14 14 14 15 14 14 16 19 21
16 16 16 16 14 14 14 14 14 12 12 11 11 11 11 11 12 12 13 13 13 13 13 13 13 11 8 5 5 7 8 9 12 14 14 13 9 7 6 4 4 5 4 4 4 4 6 6 3 3 5 6 8 7 3 3 2 2 3 2 3 2 1 2 3 6 4 2 7 5 1 8 8 1 9 13 13 12 12 13 13 15 15 15 15 16 18 20
14 15 15 14 13 13 12 13 12 12 12 11 11 11 10 10 11 12 13 13 14 14 13 12 13 10 4 4 7 8 10 11 12 14 14 12 10 7 6 5 4 5 5 6 5 4 6 5 3 5 6 4 4 3 3 3 1 2 2 3 3 3 4 2 1 1 3 3 6 5 3 4 4 4 9 10 10 11 11 11 12 13 13 13 14 16 19 20
13 13 13 13 13 12 12 12 11 11 11 11 11 10 10 10 11 12 12 14 13 14 13 10 10 10 5 4 6 8 12 12 12 15 14 12 10 8 7 5 5 6 6 7 6 5 6 4 3 4 2 2 3 3 3 2 3 3 2 3 3 3 4 2 1 1 3 1 3 5 5 6 6 6 6 7 8 11 12 13 13 14 15 15 15 17 18 20
10 12 12 13 13 12 12 11 11 11 10 11 10 10 11 10 11 12 12 13 13 13 12 10 10 6 6 8 8 9 14 13 13 15 15 14 11 10 9 6 6 7 7 6 5 5 4 3 2 1 1 2 4 3 4 4 3 4 5 4 3 2 3 2 2 2 3 1 3 4 6 8 10 12 14 14 13 14 16 17 18 19 20 20 20 20 20 21
8 9 11 12 13 13 13 12 12 11 12 12 11 11 12 11 10 11 13 14 13 9 4 10 14 3 1 11 14 11 13 13 13 15 15 14 12 10 9 7 7 8 6 5 4 4 4 3 1 1 2 4 4 4 4 3 2 1 2 3 3 2 2 1 4 0 1 1 4 6 7 9 9 11 14 17 17 18 19 20 20 21 23 23 23 24 24 25
6 7 9 10 12 12 12 13 12 12 14 15 16 15 12 11 8 6 11 15 14 5 1 11 16 3 3 11 16 13 12 13 13 16 17 15 13 10 8 7 7 5 4 4 4 4 4 2 2 2 4 5 6 7 4 3 5 4 3 2 1 1 1 3 3 2 3 1 5 7 8 10 10 10 11 17 18 16 17 19 21 22 23 25 25 27 29 29
6 6 7 8 10 11 12 13 13 14 15 16 21 16 7 9 6 4 10 12 14 9 2 10 14 5 2 8 14 13 11 11 10 15 16 15 15 11 8 8 5 4 4 4 6 3 3 2 4 6 4 1 1 3 1 4 4 4 4 4 4 2 0 4 3 1 1 2 4 6 8 10 9 9 12 16 14 15 19 20 22 25 25 26 27 29 30 29
4 5 6 6 7 9 11 13 14 15 16 18 22 12 2 10 8 7 12 7 12 17 8 8 10 6 5 7 13 13 10 8 7 12 16 17 16 9 9 9 3 4 4 6 7 3 2 3 5 4 2 4 5 5 5 4 3 3 2 2 3 2 1 4 3 0 1 0 4 5 7 10 10 9 13 17 17 20 25 26 26 27 26 26 28 30 29 26
4 4 5 4 5 7 8 12 14 16 18 20 20 9 2 9 8 9 13 3 7 18 14 8 8 7 8 8 13 13 10 7 6 12 17 18 15 9 9 9 4 4 5 4 4 3 2 4 4 2 4 3 3 4 4 3 2 1 1 1 2 1 1 1 1 1 2 2 3 5 7 10 10 9 13 22 28 26 26 27 27 26 25 27 29 29 26 23
8 7 6 5 5 6 6 9 12 15 18 21 21 12 4 7 8 9 11 2 0 10 15 12 8 8 10 8 12 13 9 6 6 12 19 18 13 8 6 7 6 4 4 5 6 5 3 1 0 3 2 1 2 2 2 1 1 4 5 4 4 2 2 2 2 2 4 1 3 4 6 7 6 5 7 13 19 20 20 22 24 24 25 28 30 30 27 24
13 11 7 6 6 5 5 6 9 13 16 19 20 15 6 7 8 7 8 3 1 5 10 13 10 9 12 10 11 11 6 4 7 12 21 18 11 8 4 4 4 3 5 7 6 5 2 0 0 4 3 2 3 3 4 5 3 3 5 4 4 4 1 4 4 3 2 2 2 2 3 5 4 4 7 8 6 9 13 16 18 21 24 27 30 30 28 26
12 14 10 6 5 6 5 4 6 10 13 16 18 14 8 7 9 7 6 0 2 4 5 10 10 9 13 12 12 10 3 4 7 11 21 19 12 8 3 2 2 1 3 5 2 1 2 1 1 3 5 4 2 2 4 6 2 3 3 3 3 3 3 3 2 1 0 3 3 2 2 4 8 8 8 6 6 7 8 10 14 19 22 25 28 27 24 23
9 11 11 9 7 7 6 4 5 6 8 12 16 13 10 9 9 7 5 2 3 6 6 7 9 9 11 12 15 10 1 7 10 9 19 19 12 9 4 3 3 1 2 2 2 1 2 3 2 2 4 4 3 2 2 6 4 2 3 5 4 2 3 2 1 2 2 2 2 2 4 2 8 9 4 2 6 8 8 8 10 17 24 25 24 21 18 16
12 9 10 12 10 8 7 7 6 4 6 10 13 14 11 10 9 6 4 1 2 7 6 6 8 9 12 15 17 9 5 10 7 6 18 19 13 8 4 3 4 5 3 3 3 1 2 4 3 3 4 2 4 1 2 3 3 2 3 2 2 3 4 3 1 2 1 3 3 3 3 2 5 10 6 1 5 9 9 10 10 16 24 24 19 15 13 12
17 12 12 13 13 11 10 10 9 6 6 8 12 15 11 10 7 3 1 2 3 5 4 8 9 9 13 14 13 8 7 6 1 7 18 16 12 6 2 4 3 4 6 4 2 1 2 2 1 3 4 2 3 2 4 1 3 3 4 1 4 3 3 2 1 0 2 1 4 5 5 3 4 8 8 3 4 7 8 8 6 6 9 11 12 12 12 12
18 16 13 11 12 14 12 11 10 8 6 7 12 15 12 9 5 2 3 2 2 3 4 7 8 10 14 11 6 6 6 3 4 11 11 8 10 5 2 3 2 2 4 2 3 2 2 2 2 1 2 3 5 4 5 4 4 5 4 3 3 2 3 2 1 3 1 3 4 7 10 6 4 5 7 4 4 5 4 4 0 4 5 6 9 10 10 10
18 19 16 13 13 14 13 13 12 10 7 6 12 16 12 5 1 3 5 0 1 3 4 4 6 11 14 10 5 6 5 4 8 12 6 4 6 3 2 3 1 4 3 3 2 1 1 2 1 1 3 6 6 4 5 5 3 3 2 3 2 1 3 2 1 3 1 4 2 3 4 5 6 6 5 5 3 3 2 1 3 6 5 5 6 7 7 8
17 20 18 17 17 16 15 15 14 12 7 7 15 17 9 3 2 4 4 2 1 3 4 5 7 10 12 9 7 7 6 6 9 9 6 5 5 5 6 5 4 3 1 3 1 1 2 3 2 3 2 4 5 4 4 5 3 0 1 4 3 1 1 1 1 1 3 5 2 3 3 2 7 6 5 8 8 6 5 4 3 5 7 6 4 4 6 8
15 19 19 19 19 18 18 17 15 14 9 10 17 13 3 3 5 6 5 2 0 1 4 7 8 9 11 9 6 7 6 5 8 8 6 6 5 6 7 6 8 5 1 5 4 1 1 1 3 4 1 6 6 4 3 1 2 4 4 5 4 3 2 4 4 2 3 3 3 4 2 3 5 3 7 10 13 14 10 5 4 2 4 5 4 5 8 10
13 16 18 21 21 21 20 18 14 11 10 14 15 7 3 6 5 7 7 2 1 1 3 6 8 9 10 7 6 8 4 3 8 7 5 6 4 5 6 7 10 5 1 3 4 6 3 3 4 5 4 9 8 6 7 5 5 7 5 5 5 5 4 4 3 3 3 1 3 4 1 3 2 2 5 4 6 12 11 8 8 10 11 9 7 7 11 14
12 13 17 20 23 23 21 18 13 9 11 12 8 4 7 7 4 6 5 2 2 2 4 6 7 8 7 3 3 7 2 2 9 7 5 7 5 6 7 7 10 8 4 4 2 5 5 4 5 5 8 15 11 9 9 6 3 5 3 3 5 4 2 1 2 3 2 1 2 2 3 5 3 6 8 7 10 11 12 12 12 13 12 9 10 13 16 18
11 12 14 16 21 22 20 19 14 9 11 9 4 3 8 4 1 3 1 1 3 5 7 7 4 4 6 2 1 3 2 2 8 5 3 5 5 7 7 6 11 11 7 6 2 3 5 2 1 2 5 11 7 6 6 4 3 3 3 4 4 1 2 2 2 1 4 2 4 3 6 6 3 8 10 11 14 13 11 11 11 12 12 13 17 20 20 19
10 11 12 13 16 17 17 20 18 14 13 9 3 4 3 1 1 0 3 3 3 8 7 5 3 4 6 4 2 4 1 2 6 4 3 4 3 7 9 7 12 14 11 9 3 2 5 2 2 1 2 3 1 1 0 3 3 4 4 4 1 3 2 2 1 2 1 5 4 3 8 8 3 6 5 3 8 8 7 9 11 15 15 15 18 19 18 14
9 9 10 14 16 16 16 18 19 19 16 8 3 3 2 2 3 1 4 4 0 6 5 3 4 4 5 6 5 7 6 4 5 4 4 4 3 8 11 7 10 15 17 14 5 1 4 2 3 3 1 1 3 2 1 3 5 4 2 1 2 1 1 2 2 2 3 4 4 5 8 7 7 7 4 4 6 7 7 8 9 10 10 10 12 13 14 13
6 4 7 12 16 17 17 16 17 18 13 5 5 5 4 5 7 6 4 5 4 1 3 2 2 2 3 4 5 8 8 6 7 5 4 4 3 7 11 8 7 12 18 17 7 1 2 3 3 3 4 1 2 0 5 1 3 4 4 3 2 2 3 3 3 2 3 4 5 7 6 6 8 5 3 7 8 7 7 6 5 3 2 4 7 11 15 15
5 2 4 9 13 16 17 15 14 12 6 4 6 5 5 6 9 15 15 8 3 2 1 2 2 1 1 0 1 5 7 7 7 6 4 5 4 4 7 8 6 7 12 14 7 2 2 2 3 2 4 0 1 4 7 7 4 1 1 2 2 1 1 0 2 2 3 3 4 5 7 8 7 2 4 6 3 2 4 5 5 6 9 12 15 19 18 15
5 2 3 7 12 16 19 15 9 6 2 3 5 5 5 5 8 15 22 18 5 3 2 2 3 1 2 1 1 2 4 5 5 5 4 5 6 3 1 1 4 6 6 7 6 4 3 3 4 2 1 3 5 6 6 7 8 8 6 7 7 5 3 1 4 3 3 3 4 4 6 11 6 4 3 3 7 6 7 7 5 10 14 17 18 18 15 13
5 3 1 7 14 19 19 11 5 4 3 3 5 7 5 3 6 11 15 17 11 3 1 2 1 1 1 1 2 3 2 3 3 4 4 4 5 3 2 4 4 10 7 2 3 3 2 3 3 3 4 4 3 2 2 1 2 3 5 6 7 6 5 5 5 4 2 3 4 2 5 13 9 5 3 2 2 3 4 5 11 15 14 12 12 14 16 18
7 4 0 5 17 22 16 7 4 5 4 5 7 8 6 3 4 8 10 10 9 6 4 3 4 5 2 2 2 2 1 1 1 2 1 1 1 1 4 5 6 9 5 1 1 1 2 2 3 2 1 1 2 2 2 3 3 1 4 4 4 4 5 5 4 3 2 3 4 3 5 14 12 2 1 9 10 12 14 12 13 15 13 12 13 15 18 20
9 8 3 4 17 23 14 5 6 7 5 5 6 8 9 7 6 7 8 9 8 5 6 5 5 6 4 2 3 2 1 1 2 2 1 0 0 1 5 6 4 3 2 1 1 2 2 2 3 3 1 1 2 2 3 3 1 2 4 3 4 5 3 3 2 1 2 5 7 5 6 12 14 5 4 6 4 6 9 9 10 13 14 15 17 18 19 20
7 8 5 5 15 23 15 5 4 6 7 8 7 9 9 7 8 12 9 9 10 7 5 7 8 9 6 4 5 6 5 4 3 3 2 2 1 1 4 6 3 1 3 4 3 3 2 2 3 5 6 6 3 2 3 2 1 2 3 5 8 8 6 4 2 3 5 8 8 7 7 10 16 16 12 9 8 7 6 8 12 15 18 20 21 21 21 21
6 6 4 4 12 19 17 10 5 3 5 9 7 8 10 6 7 14 12 9 12 11 6 7 9 10 8 8 8 8 9 10 8 4 3 4 3 1 3 7 8 7 7 7 6 5 2 1 2 3 6 6 4 2 2 4 4 4 7 8 9 8 8 6 3 5 7 7 8 9 10 12 20 23 19 16 16 11 5 9 16 20 22 24 23 23 23 23
6 4 4 6 7 11 14 14 10 5 3 8 6 5 11 10 5 10 12 9 12 14 8 5 7 8 9 10 9 9 10 11 11 9 7 5 3 2 3 5 6 9 11 8 6 5 4 2 4 4 7 7 5 6 5 3 2 6 8 8 9 9 8 7 7 10 8 6 10 12 12 14 18 20 21 21 18 10 5 9 15 17 20 22 22 23 22 21
8 6 8 10 6 5 9 12 14 12 6 6 6 5 8 11 8 8 10 9 11 14 9 5 8 10 10 11 8 7 9 10 10 11 10 6 3 2 3 2 3 10 12 6 4 6 4 3 5 5 8 10 9 10 9 6 5 5 6 7 7 8 10 10 12 14 11 9 11 12 12 14 15 17 21 22 17 13 12 14 17 20 23 25 25 22 19 18
12 8 10 13 8 6 10 10 9 11 9 6 5 6 8 12 12 9 8 6 7 11 11 8 11 13 11 10 8 7 8 8 8 9 8 6 4 3 3 1 1 7 8 4 3 6 4 4 6 6 7 11 12 11 10 9 9 9 9 10 8 7 9 12 14 15 14 13 13 15 17 18 16 15 18 24 28 27 25 25 26 27 28 28 26 24 23 24
16 10 8 10 8 7 10 12 8 7 9 7 5 6 7 10 13 10 9 9 7 8 11 11 11 12 11 10 9 9 8 7 7 7 6 6 6 4 4 4 2 3 3 3 2 4 4 4 6 7 5 10 13 13 12 10 11 11 11 11 11 12 12 12 12 11 10 13 15 17 17 18 18 15 16 27 38 34 27 26 29 31 30 27 26 26 28 30
22 16 9 7 6 5 7 9 9 7 6 7 8 8 9 10 12 10 8 13 13 9 11 14 11 7 9 11 12 11 10 9 6 1 4 4 3 2 1 2 4 2 3 3 2 3 3 2 3 6 4 7 9 11 12 10 8 9 11 13 16 17 16 15 12 9 10 13 14 14 13 13 15 14 14 23 31 28 24 26 30 34 34 28 24 26 30 34
27 22 16 8 4 6 6 4 7 7 8 10 13 13 10 9 10 8 6 11 17 16 14 15 11 6 6 11 13 14 13 9 3 5 7 4 3 4 2 2 4 3 3 3 2 3 4 3 3 5 4 7 8 8 7 6 4 6 11 16 20 19 16 14 12 13 16 15 11 11 11 11 12 13 14 18 21 20 23 29 32 35 36 32 26 27 33 38
Wind_Direction
188 190 187 184 188 189 192 193 193 196 197 202 205 208 212 215 218 219 222 222 221 216 211 207 205 209 212 213 207 206 201 197 193 174 185 211 211 220 211 184 174 165 156 148 134 117 115 124 153 158 160 169 169 183 182 173 166 157 120 196 244 233 249 149 94 73 135 137 146 164 168 166 151 169 192 197 204 214 199 183 202 213 211 221 192 184 198 208
194 194 192 187 187 189 192 193 194 196 197 200 201 205 209 212 216 217 222 222 222 217 212 210 207 210 214 214 209 205 200 200 189 184 227 240 211 211 195 178 175 166 160 153 136 111 133 175 173 159 174 181 162 170 176 173 175 185 178 205 252 199 33 30 63 57 59 121 151 161 180 191 160 164 178 193 201 196 204 207 202 206 216 221 213 215 215 207
198 199 197 190 189 191 191 193 194 196 198 199 200 204 208 212 216 218 222 223 223 219 214 212 209 210 213 214 210 202 195 205 209 214 232 228 203 199 186 181 181 172 171 166 159 180 215 194 180 181 194 182 165 174 169 178 192 220 248 202 281 47 55 44 67 72 53 95 143 150 178 194 141 148 168 205 212 188 199 206 194 193 208 223 219 220 216 201
198 200 201 195 192 193 192 193 194 196 198 200 202 204 209 213 216 220 222 225 224 220 215 212 211 210 211 213 207 194 190 216 231 224 224 213 199 192 184 183 183 182 183 183 179 185 175 148 185 200 218 191 158 173 176 180 183 175 209 159 339 358 48 52 65 83 80 82 113 129 156 191 143 144 171 200 237 205 209 213 207 205 208 218 218 215 216 210
201 201 204 200 195 194 194 194 195 196 199 202 204 205 210 214 217 221 223 225 223 219 215 212 211 209 210 208 202 191 184 192 219 213 218 210 199 193 190 184 185 191 184 184 179 175 161 161 203 213 240 197 143 171 176 172 180 165 158 90 35 7 47 53 62 95 90 86 110 124 138 170 151 160 193 206 244 210 164 198 207 210 209 211 212 209 212 216
203 202 203 204 199 195 195 197 196 197 200 203 207 209 212 215 218 221 222 224 222 218 214 211 210 207 208 204 203 196 191 291 272 209 210 206 198 194 193 189 189 186 182 181 163 162 168 184 207 211 238 209 158 176 132 158 193 219 123 76 49 27 73 62 58 112 99 88 108 123 126 131 143 195 219 219 233 221 78 29 179 173 190 199 203 205 211 218
203 201 201 202 201 198 196 198 198 200 202 204 209 212 215 217 219 220 220 222 220 216 211 209 208 205 205 203 203 206 215 275 297 208 202 199 195 192 191 188 184 176 176 170 152 174 189 199 211 214 232 223 173 170 111 149 187 218 299 89 60 53 86 80 79 141 136 94 71 89 99 145 187 237 226 221 229 233 258 277 275 253 167 186 204 214 221 228
203 201 199 198 199 199 198 199 200 202 204 206 211 214 218 220 221 221 218 218 217 214 209 207 206 202 203 203 201 216 230 243 260 203 198 193 187 187 186 178 175 175 172 162 165 202 219 218 222 221 234 234 171 156 140 155 180 233 142 112 103 76 92 95 95 137 148 113 331 164 222 248 232 254 262 239 234 236 248 259 264 254 217 209 222 228 230 235
203 202 198 196 196 197 198 200 201 204 206 209 213 217 221 221 222 221 217 216 214 212 207 204 203 200 202 202 203 231 232 220 225 213 195 187 181 180 178 173 172 170 166 176 179 194 219 226 229 223 246 71 153 138 158 177 187 209 114 116 124 104 108 111 109 119 123 119 353 182 240 239 221 262 274 257 250 242 239 245 252 251 236 227 233 237 240 241
202 200 198 196 196 196 198 200 202 205 207 211 215 218 221 221 222 220 217 213 211 210 206 203 199 199 201 199 207 238 221 208 212 200 185 180 175 173 173 169 170 164 141 207 194 196 220 252 259 206 224 74 134 114 138 163 107 120 107 111 119 119 132 133 130 128 121 109 98 248 283 246 186 201 263 260 258 234 224 231 238 244 242 239 240 244 248 249
201 198 198 197 196 197 198 200 202 203 207 211 214 217 218 217 218 218 217 213 210 208 204 202 197 199 200 194 213 242 218 206 199 184 176 171 167 166 168 163 170 170 140 196 214 204 213 244 116 181 218 136 127 93 96 114 119 130 117 108 120 137 146 155 148 149 163 116 117 291 307 279 141 146 246 240 236 215 212 222 231 241 247 246 245 245 248 250
202 199 198 197 197 196 198 201 202 203 208 211 213 217 216 213 213 213 213 211 209 207 203 200 195 198 199 200 229 254 226 203 185 173 171 166 163 159 157 158 167 174 151 148 219 207 207 198 159 145 216 155 131 111 114 121 123 145 147 128 148 162 171 188 176 169 193 134 111 21 313 269 178 221 249 239 226 221 207 217 225 237 247 247 244 240 244 248
199 199 198 197 197 196 197 200 202 206 209 212 214 216 214 210 208 207 208 208 207 206 202 197 195 198 197 208 235 239 212 194 179 171 170 166 165 161 153 150 152 167 164 162 197 198 198 174 148 139 175 112 105 120 117 124 127 158 196 225 154 174 211 190 171 166 184 129 132 82 321 263 215 237 249 233 219 219 205 215 219 230 245 247 244 236 239 245
193 196 195 195 198 199 199 199 202 207 209 213 214 213 213 208 205 203 201 203 203 203 199 196 195 196 202 223 233 211 193 186 181 173 172 170 165 164 159 144 137 149 161 158 162 174 178 165 152 158 106 69 106 122 107 124 151 161 171 294 206 201 203 170 158 165 177 143 154 131 257 263 292 263 229 205 207 212 211 225 229 233 238 240 241 237 239 244
185 188 191 192 196 200 201 201 202 204 208 210 209 209 208 204 203 198 197 197 197 198 196 195 195 193 207 237 225 203 185 182 185 177 176 174 162 159 165 154 131 131 139 137 142 157 158 157 160 131 96 93 123 131 124 149 204 168 134 263 245 223 186 142 163 168 167 157 165 155 224 260 280 194 166 187 197 204 222 237 240 239 236 235 236 237 243 249
176 179 186 190 192 197 200 201 201 201 203 204 202 201 198 199 197 193 193 191 191 193 190 192 196 194 208 229 209 197 184 182 184 180 178 176 166 159 159 153 135 128 130 129 131 151 150 139 109 113 113 124 158 176 154 146 224 198 165 231 213 197 192 173 284 187 126 132 173 197 253 278 273 154 157 186 201 212 229 243 249 246 240 236 235 238 244 250
170 175 181 183 185 189 192 195 197 195 195 194 191 187 184 188 187 188 188 186 187 187 182 181 189 202 234 227 195 190 192 188 183 183 178 176 172 154 137 141 147 133 123 124 122 127 137 133 113 120 135 179 226 210 152 165 223 194 188 252 229 180 188 178 331 247 149 168 224 213 230 260 269 256 220 206 214 218 223 237 246 246 241 242 246 245 243 246
167 172 175 177 178 180 183 186 188 186 184 181 177 173 173 175 179 180 180 181 179 173 179 178 170 193 239 213 193 192 201 196 185 184 179 177 176 157 143 140 149 139 129 131 134 135 137 147 141 104 179 210 240 203 170 204 212 184 185 221 229 181 240 245 120 179 180 182 257 229 235 251 259 268 264 255 243 225 226 240 245 245 246 250 253 249 245 245
166 171 173 176 178 178 179 180 181 178 173 168 164 162 158 157 165 172 174 174 169 161 187 186 176 170 263 191 190 193 200 194 181 182 181 179 175 162 151 146 158 160 153 154 161 160 149 133 114 338 200 200 233 219 212 241 15 43 178 195 208 192 247 179 103 87 217 159 236 240 249 254 257 263 265 264 254 234 232 241 242 243 247 250 252 249 246 244
140 162 172 175 179 181 180 178 177 173 169 164 155 150 147 148 148 165 178 181 181 185 317 181 184 188 66 172 184 183 179 176 177 182 182 177 168 158 152 151 164 192 200 171 160 163 157 148 165 210 223 212 222 224 229 0 24 19 8 357 325 1 22 88 92 339 341 326 243 242 253 259 261 262 264 267 267 256 247 245 244 244 245 246 248 249 248 246
116 133 153 169 177 181 183 179 177 172 170 167 156 146 149 170 162 159 176 190 204 218 222 172 183 191 140 172 179 169 154 156 175 186 182 173 164 156 163 167 163 210 216 125 107 122 144 172 209 213 224 210 237 223 120 44 19 12 3 356 351 326 76 77 84 241 14 11 266 273 278 270 267 271 273 269 265 258 251 248 248 248 249 250 250 251 252 252
130 122 126 153 169 177 184 181 179 175 173 171 162 148 179 188 178 169 168 187 216 219 223 177 180 184 161 165 174 165 146 144 168 188 181 170 167 164 169 180 183 186 167 100 93 102 141 219 225 203 132 73 49 41 47 24 5 20 22 355 325 284 143 72 66 310 84 193 274 312 304 280 273 269 269 263 254 249 246 243 245 247 248 249 251 253 254 254
196 162 140 141 153 165 180 184 184 181 178 177 172 169 212 184 176 177 177 176 210 212 220 194 179 187 169 159 170 165 155 155 167 185 180 170 175 181 167 182 210 165 154 144 147 149 160 217 224 115 88 85 58 44 36 14 5 352 201 208 271 248 83 29 353 305 227 218 294 327 308 282 271 257 255 253 248 248 248 245 245 246 247 250 253 255 253 251
204 193 182 161 147 148 164 184 190 188 184 183 185 188 179 169 171 179 188 217 17 199 209 201 184 188 186 173 173 174 168 158 156 181 182 170 174 186 176 193 213 187 169 180 192 191 151 173 187 92 91 161 114 90 108 150 249 226 212 211 230 229 121 121 57 300 242 256 356 331 306 283 262 241 259 260 249 244 242 243 243 242 243 249 252 254 252 248
193 194 198 175 157 144 144 174 188 193 192 191 195 194 176 166 169 170 185 218 318 179 199 207 198 193 197 191 177 174 172 148 142 177 183 173 168 174 175 199 202 206 195 183 200 216 170 42 176 125 129 176 161 168 181 188 229 235 215 211 237 277 1 101 70 10 332 332 308 359 335 291 293 290 289 297 271 241 230 228 232 235 239 246 249 252 254 252
191 191 186 173 178 157 135 140 169 187 195 200 203 197 187 174 163 170 176 205 276 171 164 196 199 199 201 193 166 151 154 174 157 177 182 175 172 168 153 163 152 229 213 183 191 228 135 106 1 112 127 130 156 223 191 176 206 265 265 337 331 326 33 85 63 32 3 281 247 123 85 280 304 297 269 271 275 260 242 230 228 232 238 245 248 252 255 256
213 196 178 173 189 172 147 132 145 168 186 203 206 193 183 172 155 163 164 8 262 172 145 173 187 192 190 178 164 151 134 167 154 173 181 178 178 175 171 150 132 221 283 61 99 60 105 135 48 65 117 118 147 223 197 170 173 251 281 335 346 71 103 135 139 193 212 324 296 168 144 235 293 283 242 196 280 277 263 253 238 235 242 246 249 251 252 251
229 225 200 188 185 180 173 160 152 161 187 202 199 185 175 167 155 153 158 294 188 152 144 163 168 170 166 165 170 159 118 149 149 174 179 178 178 178 203 193 164 196 199 108 151 293 34 149 158 137 141 138 153 206 299 175 157 234 255 317 9 84 105 136 145 220 167 29 310 224 160 185 265 276 280 219 256 269 263 258 249 243 246 246 241 237 233 233
222 224 217 199 183 185 187 172 165 174 194 196 186 181 172 159 151 132 199 228 143 124 139 157 156 156 153 159 172 155 122 137 133 164 171 177 174 166 202 232 238 194 178 161 150 355 23 148 202 144 156 168 125 48 336 31 128 197 203 95 64 82 73 71 118 115 62 16 252 202 174 224 255 264 278 271 234 251 257 254 251 240 233 221 208 207 217 226
213 208 208 206 194 192 190 183 179 171 169 177 179 177 168 159 155 139 188 210 132 104 114 144 154 154 154 154 164 162 140 94 102 141 154 169 170 161 122 195 271 94 130 75 71 82 71 61 343 36 128 131 118 79 17 40 108 153 164 118 98 117 68 32 79 84 47 270 247 198 186 208 268 251 244 247 218 217 242 265 234 93 109 152 179 198 218 228
207 205 204 210 211 205 197 197 195 173 154 161 169 167 158 151 197 192 185 209 33 125 121 143 149 151 163 161 152 176 157 105 134 143 136 151 166 183 155 157 27 59 44 7 65 121 131 82 15 132 126 127 117 75 31 34 82 123 148 131 120 32 48 17 355 75 242 251 270 255 193 196 247 244 229 252 251 177 185 233 131 118 137 171 187 208 221 221
205 206 205 206 209 211 208 206 201 183 166 153 158 158 152 142 240 226 193 88 91 174 154 168 159 156 175 172 154 172 158 133 160 162 151 157 167 186 189 181 153 115 346 217 179 42 188 198 139 111 155 170 137 83 42 7 358 140 161 121 110 306 22 333 241 159 230 240 270 325 358 244 246 241 244 277 285 262 226 217 183 137 160 179 185 223 242 232
202 204 205 203 204 208 210 214 209 195 184 162 157 157 159 193 203 212 197 146 174 205 139 156 162 162 176 178 158 159 155 148 170 175 163 163 176 191 207 207 182 178 208 178 166 126 220 286 121 99 323 212 189 137 125 285 234 192 171 140 147 176 203 237 225 212 235 247 295 325 347 270 276 268 233 243 256 257 253 236 228 207 221 246 252 256 260 250
198 201 202 202 205 206 207 218 223 211 191 167 157 149 182 205 205 197 196 167 56 70 119 147 156 161 175 186 157 149 153 157 165 174 172 164 182 198 208 217 204 206 155 162 173 167 203 284 182 169 178 186 198 193 171 159 177 200 186 162 177 174 192 214 188 213 228 244 310 316 292 213 224 291 242 253 285 276 277 272 265 274 275 276 271 265 262 253
198 200 197 200 208 211 212 218 226 225 200 172 142 133 185 203 211 191 191 157 115 117 117 138 146 157 175 195 154 150 136 153 166 174 180 177 194 195 190 204 207 205 174 190 208 164 198 248 185 165 163 169 186 207 183 135 149 223 202 186 217 202 186 184 165 188 162 25 295 249 250 221 210 282 279 294 305 289 281 281 278 274 276 289 296 289 276 261
203 203 202 204 208 212 218 218 221 224 196 164 117 184 196 206 197 176 183 85 151 139 128 139 149 161 168 164 207 176 53 80 166 169 186 196 209 200 195 195 196 200 188 183 203 149 178 245 77 92 153 168 181 213 188 135 164 211 178 202 218 136 117 167 257 38 100 263 262 188 255 276 302 292 269 253 262 261 262 274 277 274 279 293 292 291 287 273
209 206 209 213 209 208 209 209 215 210 182 152 140 208 217 324 242 126 355 340 149 145 144 146 160 181 175 152 175 188 131 99 165 172 180 188 218 209 210 209 191 198 200 192 212 175 160 206 309 51 152 184 14 348 282 47 79 137 175 212 122 40 32 132 225 350 124 246 266 186 249 280 298 277 278 268 265 262 250 249 260 268 272 279 285 295 302 295
214 213 214 215 211 206 201 204 206 190 170 155 177 225 257 272 254 348 2 330 318 156 171 166 164 188 186 172 173 175 169 158 172 188 179 172 215 205 201 212 196 196 202 199 212 241 156 190 290 351 354 304 23 46 210 22 52 106 192 252 95 120 260 141 175 240 212 238 272 254 257 268 248 247 300 312 266 248 235 221 226 245 261 283 299 311 318 315
208 218 232 220 210 204 200 206 200 175 161 171 196 210 218 222 244 261 289 326 343 218 200 129 132 196 180 178 174 166 171 173 168 179 186 176 206 200 191 199 203 198 199 197 202 232 148 177 239 324 328 310 42 169 199 182 36 33 353 345 89 146 182 173 189 202 190 211 252 272 278 260 241 230 235 247 237 217 208 195 176 151 38 350 334 325 322 321
174 182 241 220 205 198 193 200 199 175 157 199 197 196 191 192 226 239 245 260 355 8 307 43 42 168 155 256 162 155 172 180 169 174 197 182 182 210 193 183 188 193 193 195 198 162 130 182 208 310 335 355 167 216 195 178 168 152 293 225 185 132 110 187 257 190 171 192 224 257 272 260 244 185 199 230 231 178 153 125 98 52 13 345 328 317 313 316
165 184 235 203 193 190 186 189 198 190 185 209 199 200 189 179 199 220 231 233 235 25 36 44 32 89 112 47 29 97 165 183 178 177 194 190 188 219 309 162 181 171 170 192 201 177 158 183 173 144 295 217 216 221 200 185 186 187 195 198 196 191 156 196 251 221 177 202 215 218 264 270 251 130 125 108 88 86 87 75 13 344 333 318 309 300 299 316
182 195 209 186 184 182 182 187 197 206 222 211 205 208 196 177 180 191 211 221 221 224 110 89 75 91 82 114 61 31 124 175 186 180 192 210 203 197 37 39 131 150 146 172 214 181 132 148 163 170 197 209 222 213 170 163 186 204 223 211 198 192 175 187 217 216 192 224 240 221 264 272 260 129 87 352 20 321 309 317 310 310 304 287 278 281 293 308
205 208 234 189 185 180 180 195 201 203 226 218 215 213 193 167 175 173 177 193 205 204 191 192 189 192 207 135 107 35 64 154 215 195 188 290 277 56 82 85 117 144 144 30 287 164 111 134 185 200 183 26 12 26 36 37 49 310 264 226 193 203 196 191 193 184 187 202 217 216 244 267 268 178 225 285 287 281 283 289 293 289 278 263 262 273 284 291
216 223 266 213 187 182 184 204 199 204 217 206 214 218 205 197 191 180 170 178 193 191 186 202 191 184 199 146 141 184 152 126 257 243 225 213 256 116 124 121 111 117 125 115 158 173 173 179 177 170 173 329 346 349 347 356 26 241 254 227 215 219 181 146 146 148 237 211 197 207 231 261 273 255 221 266 265 257 275 284 278 274 271 267 268 272 275 279
221 221 237 231 198 193 203 229 209 212 213 200 209 214 207 206 199 198 188 179 192 198 192 203 192 178 179 164 178 207 190 178 232 239 214 229 233 141 156 165 163 128 129 137 134 134 158 204 175 171 198 209 209 219 218 224 213 231 238 221 222 216 177 154 149 167 224 226 213 225 239 260 278 278 272 274 265 257 276 290 285 283 282 280 277 273 273 275
222 213 203 213 207 207 221 243 257 261 211 200 210 210 204 203 192 198 200 187 193 202 210 209 195 186 186 176 182 204 198 194 210 214 197 219 227 136 180 198 203 198 169 147 137 119 100 269 217 207 228 220 210 224 178 133 141 202 226 220 222 224 199 180 185 201 220 235 235 237 240 255 270 275 279 279 273 274 287 286 285 285 286 287 286 282 281 277
223 217 189 174 194 219 232 238 237 248 230 203 202 197 203 208 190 189 199 199 194 197 212 225 198 193 196 188 187 199 196 193 204 214 216 206 187 104 153 180 188 179 161 143 137 117 95 247 237 244 263 265 271 286 316 38 154 217 231 225 223 230 216 195 216 228 223 235 247 240 235 245 260 271 278 277 278 289 294 276 283 293 298 302 302 298 290 277
219 238 221 195 184 208 220 224 220 218 238 241 213 192 200 207 205 190 193 203 201 195 199 219 213 210 205 197 195 198 195 193 200 213 221 208 160 103 141 153 158 163 152 133 142 125 109 226 222 221 257 271 278 284 296 309 292 270 263 255 240 228 221 216 227 234 227 229 249 254 252 252 258 269 274 277 286 297 296 294 300 304 305 307 305 299 289 276
224 254 238 213 214 223 210 209 206 206 226 254 230 207 201 204 210 203 182 185 210 203 197 205 213 212 211 206 203 203 198 197 201 205 207 197 175 149 157 127 131 163 145 110 156 146 130 209 206 192 241 262 263 266 274 277 279 279 272 273 273 253 234 226 230 237 237 240 252 261 264 263 259 261 272 284 291 292 293 298 299 296 294 295 294 291 287 283
217 232 241 230 241 255 226 206 187 195 219 233 239 229 215 207 210 208 187 177 186 200 202 211 214 205 208 214 216 219 209 199 214 213 188 185 188 176 184 175 140 170 156 106 155 164 161 198 177 159 214 257 253 253 258 253 256 264 267 271 272 268 261 248 241 240 240 246 250 252 261 266 263 261 273 283 286 288 292 295 293 290 289 288 288 289 289 287
213 216 240 264 252 243 237 210 188 190 211 216 225 226 224 218 208 203 201 195 193 194 197 208 216 203 202 213 217 226 225 218 234 247 107 155 174 103 167 160 111 135 171 145 143 160 174 193 131 136 201 248 241 240 248 245 244 253 258 256 249 249 252 250 246 240 234 240 245 247 252 260 266 273 277 277 280 284 290 291 289 288 288 288 288 288 287 286
215 214 228 258 250 216 224 214 190 194 205 211 217 218 222 226 208 196 205 203 203 209 206 204 206 198 208 218 218 226 228 220 209 71 85 106 94 70 42 72 94 134 170 147 135 160 166 165 142 152 198 248 242 226 226 234 228 224 234 237 235 235 242 248 249 243 238 235 236 242 245 252 271 283 277 270 273 278 283 284 283 285 287 289 287 284 284 284
Height
1483 1484 1485 1487 1488 1490 1492 1493 1495 1496 1498 1499 1501 1502 1504 1506 1507 1508 1508 1509 1510 1511 1512 1513 1514 1515 1516 1516 1517 1517 1517 1518 1518 1518 1518 1518 1519 1520 1520 1521 1521 1521 1522 1522 1523 1524 1524 1525 1525 1526 1527 1528 1528 1529 1529 1529 1529 1530 1532 1537 1539 1535 1533 1530 1530 1532 1533 1536 1537 1537 1538 1538 1540 1542 1543 1544 1546 1547 1547 1548 1549 1549 1550 1551 1551 1552 1552 1553
1483 1484 1485 1486 1488 1489 1491 1492 1494 1495 1497 1499 1500 1502 1503 1505 1506 1507 1508 1509 1510 1511 1512 1513 1514 1515 1516 1516 1517 1517 1517 1517 1518 1518 1518 1518 1519 1520 1520 1521 1521 1522 1522 1523 1523 1524 1525 1526 1526 1526 1527 1528 1528 1529 1529 1529 1529 1530 1531 1536 1536 1532 1531 1528 1528 1530 1531 1535 1537 1537 1538 1538 1539 1541 1543 1545 1545 1546 1547 1548 1548 1549 1549 1550 1551 1551 1552 1553
1482 1484 1485 1486 1487 1489 1490 1492 1493 1495 1496 1498 1499 1501 1502 1504 1505 1506 1507 1508 1509 1510 1512 1513 1514 1515 1516 1516 1516 1516 1517 1517 1517 1517 1517 1518 1519 1520 1520 1521 1521 1522 1522 1523 1523 1524 1525 1526 1526 1526 1527 1527 1527 1528 1529 1529 1529 1529 1531 1535 1534 1530 1530 1529 1529 1531 1533 1534 1535 1537 1538 1538 1539 1540 1542 1544 1544 1545 1546 1546 1547 1548 1548 1548 1549 1550 1551 1552
1481 1483 1484 1485 1487 1488 1490 1492 1493 1495 1496 1498 1499 1500 1502 1503 1504 1505 1506 1507 1509 1510 1511 1513 1514 1515 1516 1516 1516 1516 1516 1516 1516 1516 1517 1518 1519 1520 1520 1521 1521 1522 1522 1523 1524 1524 1524 1525 1526 1526 1527 1527 1527 1528 1528 1529 1530 1529 1531 1534 1532 1528 1530 1532 1531 1532 1533 1534 1535 1536 1538 1539 1539 1540 1542 1543 1544 1544 1543 1544 1544 1545 1545 1546 1548 1549 1550 1551
1481 1482 1484 1485 1486 1488 1490 1492 1493 1494 1496 1497 1498 1500 1501 1502 1504 1505 1506 1507 1508 1510 1511 1512 1514 1515 1515 1515 1516 1515 1516 1517 1515 1515 1517 1518 1519 1519 1520 1521 1521 1522 1523 1524 1524 1524 1524 1525 1526 1526 1527 1526 1527 1529 1528 1528 1529 1530 1530 1531 1530 1529 1532 1534 1533 1533 1534 1534 1535 1536 1538 1538 1538 1540 1541 1542 1544 1543 1542 1542 1543 1543 1543 1544 1546 1548 1549 1550
1481 1482 1484 1485 1487 1488 1490 1492 1493 1494 1496 1497 1498 1499 1500 1502 1503 1504 1506 1507 1508 1509 1511 1512 1513 1514 1515 1515 1515 1515 1516 1517 1515 1515 1517 1517 1518 1519 1520 1521 1521 1522 1523 1524 1524 1524 1525 1525 1526 1526 1526 1525 1526 1528 1527 1528 1529 1531 1530 1529 1531 1531 1532 1534 1534 1534 1535 1535 1536 1537 1538 1538 1538 1540 1540 1541 1541 1541 1541 1541 1542 1542 1542 1544 1546 1547 1548 1549
1480 1481 1483 1485 1487 1488 1490 1491 1493 1494 1495 1497 1498 1499 1500 1501 1502 1504 1505 1506 1508 1509 1510 1512 1513 1513 1514 1514 1515 1515 1516 1516 1515 1516 1516 1517 1518 1519 1520 1521 1522 1522 1523 1523 1524 1524 1525 1525 1526 1526 1525 1525 1526 1526 1527 1528 1529 1531 1531 1531 1532 1532 1533 1534 1534 1534 1535 1536 1536 1537 1537 1538 1539 1539 1539 1539 1539 1540 1541 1541 1542 1543 1543 1544 1545 1546 1547 1548
1479 1481 1482 1484 1486 1488 1489 1491 1492 1494 1495 1496 1497 1499 1500 1501 1502 1503 1505 1506 1507 1509 1510 1511 1512 1513 1514 1514 1515 1515 1515 1515 1515 1516 1516 1517 1518 1519 1520 1521 1522 1522 1523 1523 1523 1524 1525 1525 1526 1525 1525 1525 1525 1526 1527 1529 1529 1530 1531 1531 1532 1533 1534 1534 1534 1535 1535 1536 1536 1537 1537 1538 1538 1538 1538 1537 1538 1539 1540 1540 1541 1543 1543 1544 1544 1545 1546 1547
1478 1480 1481 1483 1485 1487 1489 1490 1492 1493 1495 1496 1497 1498 1499 1500 1501 1503 1504 1506 1507 1508 1510 1511 1512 1513 1513 1514 1515 1515 1514 1514 1515 1516 1516 1517 1518 1519 1520 1521 1521 1522 1523 1523 1523 1524 1525 1525 1526 1525 1525 1525 1524 1526 1527 1530 1531 1530 1530 1531 1532 1534 1534 1535 1535 1535 1536 1536 1536 1537 1537 1537 1537 1538 1537 1535 1536 1537 1538 1539 1540 1541 1542 1543 1543 1544 1545 1546
1477 1479 1481 1483 1484 1486 1488 1490 1491 1493 1494 1495 1497 1498 1499 1500 1501 1502 1504 1505 1507 1508 1509 1510 1511 1512 1513 1514 1515 1515 1514 1514 1515 1515 1516 1517 1518 1519 1520 1520 1521 1521 1522 1523 1523 1524 1524 1525 1525 1525 1525 1525 1525 1527 1527 1530 1531 1530 1531 1532 1533 1534 1534 1535 1535 1536 1536 1536 1537 1537 1537 1536 1536 1538 1536 1533 1533 1535 1536 1538 1538 1539 1540 1541 1542 1542 1543 1544
1477 1478 1480 1482 1483 1485 1487 1489 1491 1492 1493 1495 1496 1497 1498 1499 1500 1502 1503 1505 1506 1508 1509 1510 1511 1512 1513 1513 1514 1514 1513 1514 1515 1515 1516 1517 1518 1519 1520 1520 1521 1521 1522 1523 1523 1523 1524 1525 1525 1525 1526 1525 1526 1528 1528 1529 1530 1530 1531 1533 1534 1534 1535 1535 1535 1536 1536 1536 1537 1537 1537 1536 1537 1538 1533 1531 1533 1534 1535 1536 1537 1537 1538 1539 1540 1541 1541 1542
1476 1478 1479 1481 1483 1484 1486 1488 1490 1491 1492 1494 1495 1496 1497 1498 1499 1501 1503 1504 1506 1507 1509 1510 1511 1512 1512 1513 1513 1513 1513 1514 1514 1515 1516 1517 1518 1519 1520 1520 1521 1521 1522 1522 1523 1523 1524 1525 1525 1526 1526 1525 1527 1529 1530 1530 1530 1531 1531 1533 1535 1535 1535 1535 1535 1535 1535 1536 1536 1537 1538 1536 1535 1532 1526 1528 1532 1532 1534 1535 1535 1536 1536 1537 1538 1539 1539 1539
1475 1477 1479 1481 1482 1484 1485 1487 1489 1490 1491 1492 1493 1495 1496 1497 1499 1500 1502 1504 1505 1507 1508 1509 1510 1511 1512 1512 1512 1512 1513 1513 1514 1515 1516 1517 1518 1519 1520 1521 1521 1521 1522 1522 1522 1523 1524 1525 1525 1526 1526 1526 1527 1529 1530 1530 1531 1532 1531 1533 1535 1537 1536 1533 1534 1535 1535 1537 1536 1538 1543 1536 1529 1526 1523 1527 1530 1530 1533 1533 1534 1534 1534 1535 1535 1536 1537 1537
1474 1476 1478 1480 1482 1483 1484 1486 1487 1489 1490 1491 1493 1494 1495 1497 1498 1500 1501 1503 1505 1506 1507 1509 1510 1511 1512 1512 1512 1512 1513 1513 1514 1515 1516 1517 1518 1519 1520 1521 1521 1521 1522 1522 1523 1523 1524 1525 1526 1526 1526 1526 1527 1529 1530 1531 1532 1532 1532 1534 1535 1539 1538 1532 1533 1534 1535 1537 1535 1538 1546 1537 1527 1525 1524 1526 1528 1529 1531 1531 1532 1533 1533 1533 1533 1534 1534 1534
1474 1476 1478 1480 1481 1483 1484 1485 1487 1488 1489 1491 1492 1493 1495 1496 1498 1499 1501 1503 1504 1506 1507 1508 1509 1510 1511 1511 1511 1512 1512 1513 1514 1515 1516 1517 1518 1519 1520 1521 1521 1521 1522 1522 1523 1524 1524 1525 1526 1526 1527 1527 1528 1529 1531 1532 1532 1531 1537 1541 1536 1538 1540 1535 1533 1534 1535 1537 1535 1539 1544 1537 1527 1525 1525 1526 1528 1529 1530 1530 1531 1531 1531 1532 1532 1532 1532 1532
1474 1476 1478 1479 1481 1483 1484 1485 1486 1488 1489 1490 1491 1493 1494 1496 1497 1499 1500 1502 1504 1505 1507 1508 1509 1510 1510 1510 1510 1511 1512 1512 1513 1515 1516 1517 1518 1519 1520 1521 1521 1521 1522 1522 1523 1524 1525 1525 1526 1527 1527 1528 1529 1529 1532 1535 1536 1533 1537 1542 1537 1537 1540 1538 1535 1534 1534 1535 1536 1538 1540 1535 1528 1526 1526 1526 1527 1528 1529 1529 1530 1530 1530 1530 1530 1530 1530 1530
1474 1476 1477 1479 1481 1482 1484 1485 1486 1487 1488 1490 1491 1492 1494 1496 1497 1499 1500 1502 1504 1505 1506 1508 1509 1510 1509 1509 1509 1510 1510 1512 1513 1514 1515 1517 1518 1519 1520 1521 1521 1522 1522 1523 1524 1524 1525 1526 1527 1528 1527 1528 1528 1528 1536 1544 1542 1537 1537 1539 1535 1533 1537 1538 1537 1535 1534 1536 1536 1537 1537 1535 1530 1527 1527 1527 1527 1527 1527 1527 1527 1528 1528 1528 1528 1528 1528 1528
1475 1476 1477 1479 1480 1481 1483 1484 1486 1487 1489 1490 1491 1493 1494 1495 1497 1499 1500 1502 1503 1505 1507 1507 1508 1511 1510 1507 1508 1508 1509 1511 1512 1513 1515 1517 1518 1519 1520 1521 1521 1522 1522 1523 1524 1524 1526 1526 1527 1528 1529 1529 1528 1529 1539 1543 1538 1537 1538 1539 1536 1532 1533 1535 1537 1536 1534 1536 1537 1537 1537 1534 1529 1526 1526 1526 1526 1525 1524 1524 1524 1524 1525 1525 1525 1525 1525 1525
1476 1477 1478 1479 1480 1481 1483 1484 1486 1487 1488 1490 1491 1493 1494 1496 1498 1499 1500 1501 1502 1504 1505 1504 1505 1507 1506 1504 1505 1507 1508 1510 1512 1513 1515 1516 1518 1519 1519 1521 1521 1522 1523 1524 1524 1524 1525 1527 1529 1532 1532 1531 1529 1529 1533 1532 1529 1531 1533 1534 1534 1533 1533 1533 1535 1536 1534 1536 1537 1536 1535 1531 1528 1525 1523 1523 1523 1522 1522 1521 1521 1521 1521 1521 1522 1522 1522 1522
1476 1477 1478 1479 1480 1481 1482 1484 1485 1487 1488 1489 1490 1492 1494 1496 1497 1499 1500 1500 1500 1501 1501 1501 1502 1503 1503 1502 1504 1506 1508 1510 1511 1512 1514 1515 1517 1519 1519 1521 1521 1522 1522 1522 1524 1524 1525 1529 1532 1533 1531 1529 1527 1526 1527 1527 1527 1529 1531 1532 1532 1533 1535 1535 1537 1537 1535 1537 1536 1533 1532 1528 1526 1523 1520 1521 1521 1520 1520 1519 1518 1518 1517 1517 1517 1517 1517 1517
1477 1478 1479 1480 1480 1481 1483 1484 1485 1487 1488 1488 1489 1491 1493 1494 1495 1497 1498 1500 1500 1500 1500 1500 1501 1502 1502 1503 1504 1505 1507 1510 1511 1512 1513 1515 1516 1518 1519 1520 1521 1523 1522 1521 1523 1524 1526 1532 1532 1528 1527 1525 1525 1525 1526 1528 1529 1530 1533 1535 1535 1534 1536 1536 1538 1538 1536 1538 1536 1531 1531 1527 1523 1522 1518 1519 1518 1516 1516 1515 1514 1513 1513 1513 1513 1513 1513 1513
1478 1479 1479 1480 1481 1481 1483 1484 1485 1486 1487 1489 1489 1489 1491 1492 1493 1494 1495 1498 1498 1499 1500 1500 1501 1501 1502 1503 1504 1505 1507 1509 1511 1512 1513 1514 1516 1517 1518 1519 1521 1521 1520 1521 1524 1527 1531 1532 1528 1524 1524 1524 1525 1525 1527 1529 1530 1533 1535 1538 1540 1536 1535 1538 1539 1537 1537 1539 1536 1533 1533 1527 1521 1520 1516 1515 1513 1511 1511 1510 1510 1509 1509 1510 1509 1508 1509 1511
1478 1478 1480 1481 1481 1482 1483 1484 1485 1485 1487 1488 1488 1489 1490 1491 1493 1494 1495 1496 1497 1497 1499 1500 1500 1501 1502 1503 1504 1505 1506 1507 1509 1511 1512 1514 1515 1516 1517 1518 1519 1519 1520 1522 1525 1531 1534 1530 1525 1523 1524 1525 1527 1528 1529 1531 1533 1535 1536 1540 1542 1537 1537 1541 1541 1539 1537 1538 1537 1536 1536 1527 1518 1517 1512 1508 1506 1504 1506 1506 1506 1507 1506 1506 1506 1505 1507 1508
1477 1478 1480 1480 1482 1482 1483 1484 1484 1485 1487 1487 1488 1489 1490 1491 1493 1494 1494 1495 1495 1496 1497 1499 1500 1501 1501 1502 1504 1505 1506 1506 1507 1509 1511 1513 1514 1516 1516 1517 1518 1519 1520 1521 1523 1527 1529 1527 1524 1524 1525 1525 1528 1530 1531 1535 1537 1536 1535 1538 1539 1536 1537 1540 1540 1539 1536 1537 1537 1538 1538 1524 1511 1512 1508 1502 1501 1501 1503 1504 1502 1503 1504 1503 1503 1503 1504 1504
1476 1478 1479 1480 1482 1482 1483 1484 1484 1485 1487 1487 1488 1489 1490 1492 1492 1494 1495 1495 1496 1496 1497 1498 1499 1500 1500 1501 1503 1504 1505 1506 1506 1508 1510 1512 1513 1515 1516 1516 1518 1519 1519 1519 1522 1524 1525 1526 1525 1525 1526 1526 1529 1532 1532 1535 1538 1536 1534 1534 1534 1534 1535 1537 1539 1540 1541 1543 1540 1539 1542 1527 1508 1510 1509 1502 1502 1501 1500 1500 1500 1500 1501 1501 1499 1499 1500 1501
1476 1478 1479 1480 1482 1482 1483 1484 1484 1486 1486 1487 1488 1489 1491 1492 1493 1495 1494 1497 1499 1495 1496 1497 1497 1498 1498 1500 1502 1503 1506 1506 1506 1507 1509 1511 1513 1514 1516 1516 1517 1519 1517 1517 1521 1523 1525 1526 1525 1525 1527 1528 1530 1532 1531 1532 1538 1539 1536 1534 1533 1533 1536 1538 1540 1543 1546 1547 1540 1538 1546 1540 1518 1508 1507 1504 1502 1501 1499 1498 1497 1498 1498 1497 1495 1496 1498 1498
1475 1477 1478 1480 1481 1482 1483 1483 1485 1486 1485 1487 1487 1489 1492 1491 1494 1494 1495 1507 1504 1490 1492 1496 1495 1495 1496 1498 1500 1503 1506 1506 1505 1508 1508 1511 1513 1513 1515 1516 1517 1519 1517 1518 1524 1525 1525 1527 1527 1526 1528 1530 1532 1534 1530 1530 1537 1540 1537 1537 1535 1535 1538 1540 1541 1544 1545 1544 1541 1538 1542 1548 1535 1509 1500 1504 1504 1501 1499 1497 1496 1496 1494 1493 1493 1494 1495 1496
1475 1476 1477 1479 1481 1482 1483 1483 1485 1485 1485 1486 1486 1490 1491 1491 1495 1492 1499 1515 1502 1483 1487 1492 1492 1494 1495 1498 1499 1501 1503 1502 1505 1508 1508 1510 1512 1513 1515 1515 1516 1518 1516 1520 1528 1527 1524 1527 1527 1527 1530 1532 1533 1534 1531 1529 1535 1539 1537 1537 1536 1537 1539 1539 1542 1544 1544 1546 1548 1542 1540 1549 1543 1513 1497 1502 1504 1502 1499 1495 1494 1491 1490 1490 1492 1493 1494 1495
1473 1476 1477 1478 1480 1481 1482 1483 1484 1484 1485 1485 1486 1490 1490 1492 1494 1491 1502 1509 1489 1478 1486 1488 1491 1494 1494 1497 1499 1499 1501 1502 1504 1507 1508 1510 1512 1513 1514 1515 1515 1516 1517 1519 1525 1526 1526 1527 1527 1526 1529 1531 1533 1535 1532 1530 1533 1536 1537 1537 1537 1538 1539 1541 1544 1544 1547 1552 1550 1543 1540 1545 1538 1515 1502 1503 1503 1501 1497 1492 1490 1488 1488 1489 1491 1493 1493 1494
1472 1474 1476 1477 1478 1480 1481 1482 1483 1483 1484 1485 1486 1488 1489 1492 1493 1498 1511 1503 1480 1480 1488 1487 1490 1492 1493 1497 1499 1500 1501 1503 1504 1506 1509 1511 1512 1513 1514 1515 1515 1516 1519 1520 1524 1527 1527 1527 1527 1526 1528 1529 1532 1534 1533 1532 1533 1535 1536 1537 1539 1540 1540 1543 1544 1545 1552 1552 1544 1538 1536 1539 1537 1516 1502 1501 1498 1495 1493 1490 1489 1488 1489 1490 1491 1492 1493 1493
1471 1473 1476 1477 1478 1479 1480 1482 1482 1483 1484 1484 1485 1488 1490 1492 1494 1502 1508 1491 1477 1484 1488 1488 1490 1490 1492 1494 1498 1500 1500 1503 1504 1505 1509 1511 1513 1514 1515 1517 1518 1521 1526 1525 1526 1529 1528 1528 1528 1527 1528 1528 1530 1533 1534 1534 1534 1535 1536 1537 1543 1545 1546 1549 1549 1552 1557 1550 1540 1538 1534 1538 1538 1516 1497 1494 1492 1490 1490 1490 1490 1489 1490 1491 1491 1492 1493 1493
1470 1472 1475 1476 1477 1478 1479 1480 1481 1482 1484 1483 1485 1487 1489 1495 1499 1499 1493 1481 1481 1485 1483 1486 1488 1488 1490 1491 1494 1498 1498 1502 1504 1503 1507 1509 1513 1513 1513 1515 1517 1524 1531 1529 1529 1531 1529 1527 1526 1527 1528 1528 1529 1534 1538 1537 1536 1537 1536 1539 1548 1552 1554 1557 1556 1557 1556 1548 1541 1541 1539 1536 1526 1507 1496 1493 1489 1488 1488 1488 1489 1490 1490 1491 1491 1492 1492 1493
1470 1471 1473 1475 1476 1477 1478 1479 1480 1481 1482 1483 1485 1486 1489 1498 1499 1489 1481 1479 1481 1480 1478 1481 1484 1485 1489 1490 1493 1496 1497 1501 1502 1503 1504 1506 1511 1512 1511 1511 1510 1516 1522 1524 1530 1534 1531 1528 1527 1529 1530 1527 1527 1532 1539 1539 1537 1537 1536 1540 1549 1554 1559 1560 1556 1552 1548 1545 1543 1542 1542 1534 1515 1500 1495 1492 1487 1486 1486 1487 1488 1488 1490 1490 1490 1492 1492 1493
1469 1470 1472 1473 1475 1476 1477 1478 1479 1480 1482 1482 1483 1486 1492 1496 1489 1479 1478 1479 1478 1478 1478 1480 1482 1485 1488 1489 1491 1493 1497 1501 1500 1501 1504 1506 1511 1512 1511 1510 1508 1510 1514 1519 1525 1529 1532 1530 1526 1525 1525 1524 1524 1525 1528 1530 1534 1534 1530 1533 1540 1542 1547 1550 1548 1546 1543 1544 1547 1547 1541 1527 1510 1499 1491 1488 1487 1486 1486 1487 1487 1487 1488 1489 1489 1491 1492 1491
1469 1470 1471 1473 1474 1475 1476 1477 1478 1479 1482 1482 1483 1487 1492 1490 1480 1476 1478 1477 1477 1480 1480 1480 1483 1487 1489 1490 1489 1490 1494 1498 1498 1500 1502 1504 1508 1508 1507 1508 1507 1507 1512 1518 1518 1519 1525 1523 1516 1517 1517 1517 1520 1520 1519 1525 1533 1533 1527 1531 1536 1531 1531 1538 1543 1541 1542 1548 1548 1545 1535 1514 1501 1494 1487 1488 1488 1485 1486 1485 1485 1487 1486 1487 1488 1489 1489 1489
1469 1470 1471 1472 1473 1474 1475 1477 1478 1480 1482 1483 1486 1487 1483 1479 1476 1475 1474 1474 1476 1478 1480 1484 1486 1489 1492 1492 1492 1491 1492 1495 1497 1500 1503 1502 1503 1502 1501 1501 1501 1502 1506 1512 1512 1512 1521 1522 1516 1517 1517 1516 1518 1518 1517 1522 1528 1530 1530 1532 1529 1524 1525 1534 1543 1542 1544 1549 1539 1532 1524 1508 1502 1495 1484 1485 1486 1483 1487 1486 1485 1487 1486 1487 1488 1487 1488 1488
1468 1469 1470 1471 1472 1473 1475 1477 1478 1480 1481 1484 1490 1488 1481 1478 1477 1476 1475 1474 1474 1474 1479 1486 1487 1488 1490 1493 1494 1493 1493 1494 1497 1500 1503 1503 1501 1498 1497 1496 1496 1497 1499 1503 1505 1504 1511 1520 1520 1519 1520 1519 1518 1519 1518 1518 1520 1526 1531 1528 1523 1526 1527 1531 1542 1545 1547 1549 1534 1522 1518 1511 1511 1503 1484 1482 1486 1485 1487 1486 1485 1486 1486 1487 1487 1486 1487 1487
1467 1469 1470 1470 1471 1473 1474 1476 1477 1478 1480 1485 1491 1490 1485 1482 1478 1476 1477 1475 1474 1474 1477 1481 1483 1483 1485 1489 1493 1492 1493 1496 1499 1500 1501 1502 1499 1492 1492 1494 1492 1493 1495 1499 1504 1501 1503 1516 1523 1522 1522 1521 1519 1520 1522 1521 1520 1522 1525 1523 1523 1533 1535 1533 1540 1544 1547 1550 1536 1521 1517 1513 1509 1500 1488 1486 1487 1485 1485 1485 1485 1485 1485 1486 1486 1487 1487 1486
1467 1469 1469 1469 1471 1473 1474 1476 1476 1477 1480 1484 1489 1488 1483 1481 1478 1477 1478 1477 1476 1475 1476 1477 1479 1482 1483 1484 1486 1489 1491 1494 1497 1499 1499 1499 1497 1489 1487 1491 1490 1491 1493 1496 1501 1501 1501 1511 1522 1524 1523 1522 1521 1522 1523 1523 1523 1523 1523 1523 1523 1528 1531 1531 1532 1533 1538 1546 1540 1528 1523 1511 1495 1488 1487 1487 1484 1482 1483 1484 1484 1485 1485 1487 1487 1487 1487 1486
1467 1469 1469 1468 1470 1472 1473 1476 1476 1477 1479 1480 1481 1481 1477 1477 1478 1478 1478 1479 1478 1478 1478 1479 1479 1481 1483 1482 1482 1485 1489 1490 1492 1497 1496 1494 1494 1489 1485 1487 1489 1490 1492 1494 1497 1499 1502 1508 1517 1526 1526 1524 1523 1519 1516 1518 1521 1524 1526 1526 1525 1526 1528 1530 1528 1524 1528 1538 1538 1535 1528 1504 1481 1479 1483 1482 1480 1480 1482 1483 1484 1485 1485 1486 1487 1487 1487 1486
1467 1468 1468 1467 1470 1471 1473 1475 1475 1475 1476 1475 1474 1475 1474 1474 1475 1476 1477 1479 1480 1480 1481 1481 1481 1482 1484 1484 1483 1484 1487 1488 1489 1492 1492 1490 1490 1490 1487 1486 1487 1489 1491 1496 1497 1498 1503 1506 1514 1525 1527 1523 1518 1510 1509 1511 1512 1516 1520 1520 1521 1522 1527 1534 1533 1524 1522 1527 1527 1530 1527 1498 1473 1475 1479 1478 1481 1481 1481 1484 1484 1485 1487 1487 1487 1486 1486 1486
1467 1467 1466 1466 1469 1470 1472 1473 1473 1472 1473 1471 1471 1471 1471 1471 1472 1474 1476 1478 1480 1481 1481 1483 1484 1485 1485 1485 1486 1486 1487 1489 1488 1489 1490 1488 1487 1487 1488 1486 1486 1488 1491 1496 1496 1495 1499 1503 1510 1518 1518 1515 1512 1508 1509 1510 1508 1511 1513 1512 1514 1517 1521 1530 1534 1525 1521 1523 1519 1523 1527 1496 1466 1472 1479 1476 1480 1481 1482 1485 1484 1485 1488 1487 1486 1486 1485 1485
1466 1466 1465 1466 1467 1469 1471 1472 1472 1471 1470 1468 1468 1469 1469 1470 1471 1472 1474 1476 1478 1479 1481 1482 1483 1485 1485 1485 1488 1489 1489 1491 1491 1490 1489 1490 1488 1487 1488 1488 1487 1488 1491 1495 1496 1495 1498 1502 1508 1512 1510 1510 1510 1508 1508 1509 1510 1512 1511 1509 1512 1514 1515 1519 1523 1521 1521 1523 1520 1526 1530 1498 1463 1469 1479 1476 1479 1481 1481 1483 1484 1485 1486 1486 1486 1486 1485 1485
1465 1465 1465 1466 1467 1468 1469 1468 1467 1467 1466 1466 1468 1468 1468 1469 1470 1471 1472 1474 1476 1476 1479 1480 1480 1483 1485 1485 1488 1490 1491 1493 1494 1491 1490 1492 1490 1488 1488 1489 1489 1490 1492 1495 1496 1497 1500 1502 1506 1512 1516 1517 1517 1516 1515 1513 1513 1514 1511 1510 1510 1510 1513 1516 1517 1519 1522 1520 1517 1523 1526 1499 1467 1466 1476 1477 1478 1480 1481 1482 1483 1483 1483 1484 1484 1484 1484 1484
1464 1464 1464 1465 1465 1466 1464 1462 1462 1463 1464 1466 1467 1466 1466 1467 1468 1469 1471 1472 1473 1474 1476 1477 1477 1480 1483 1485 1488 1489 1490 1493 1494 1493 1492 1492 1490 1488 1488 1490 1490 1491 1492 1494 1494 1495 1501 1503 1504 1510 1517 1519 1519 1518 1515 1512 1513 1514 1510 1509 1508 1508 1512 1514 1516 1522 1523 1516 1513 1515 1513 1498 1474 1466 1472 1476 1476 1478 1481 1482 1482 1482 1482 1482 1481 1482 1482 1482
1463 1462 1462 1464 1465 1464 1462 1461 1462 1462 1461 1463 1465 1464 1465 1466 1466 1467 1469 1470 1471 1472 1473 1474 1475 1477 1480 1483 1486 1488 1488 1490 1492 1492 1492 1492 1489 1488 1488 1489 1491 1492 1492 1494 1494 1496 1502 1504 1503 1505 1507 1507 1507 1505 1502 1503 1509 1511 1508 1507 1508 1507 1508 1511 1516 1519 1516 1513 1511 1508 1504 1499 1483 1470 1470 1471 1471 1476 1481 1482 1481 1481 1480 1479 1479 1479 1479 1479
1461 1458 1458 1460 1462 1463 1463 1462 1462 1461 1459 1460 1461 1460 1462 1464 1464 1466 1468 1468 1469 1470 1472 1473 1473 1475 1477 1478 1482 1484 1484 1486 1489 1489 1489 1489 1487 1488 1489 1489 1490 1491 1492 1494 1495 1497 1504 1506 1504 1505 1505 1502 1502 1501 1499 1503 1507 1507 1507 1507 1508 1508 1508 1512 1514 1510 1508 1512 1510 1499 1497 1498 1488 1476 1471 1467 1467 1474 1479 1480 1479 1479 1478 1478 1477 1477 1477 1477
1458 1455 1454 1455 1456 1457 1458 1457 1457 1458 1459 1459 1458 1457 1460 1462 1462 1464 1465 1466 1467 1469 1471 1473 1473 1472 1472 1474 1477 1480 1481 1484 1487 1486 1486 1487 1487 1489 1490 1490 1490 1491 1491 1494 1495 1497 1505 1508 1504 1506 1507 1504 1503 1503 1503 1505 1506 1506 1507 1507 1506 1508 1509 1510 1509 1504 1503 1508 1504 1495 1494 1495 1488 1480 1472 1464 1466 1472 1475 1476 1477 1477 1477 1476 1476 1475 1475 1475
1455 1454 1453 1453 1452 1451 1452 1453 1455 1458 1460 1460 1458 1456 1457 1459 1459 1459 1461 1465 1467 1467 1468 1471 1470 1469 1470 1471 1474 1476 1478 1480 1483 1482 1482 1484 1486 1488 1490 1490 1491 1492 1491 1494 1495 1496 1502 1507 1505 1507 1510 1507 1505 1505 1505 1506 1507 1506 1506 1506 1505 1505 1505 1505 1504 1501 1500 1502 1498 1495 1494 1489 1482 1480 1473 1466 1466 1469 1471 1473 1474 1474 1474 1474 1473 1473 1472 1472
1452 1453 1452 1452 1451 1449 1450 1452 1455 1459 1460 1460 1459 1455 1454 1455 1456 1456 1457 1461 1465 1465 1466 1467 1466 1467 1469 1470 1472 1473 1473 1474 1477 1477 1479 1481 1483 1485 1487 1487 1489 1492 1492 1493 1495 1495 1499 1502 1502 1507 1512 1508 1503 1504 1505 1507 1508 1507 1506 1506 1505 1504 1503 1501 1500 1499 1501 1501 1496 1495 1496 1487 1475 1475 1477 1472 1467 1466 1469 1471 1470 1468 1470 1471 1471 1470 1469 1468
1450 1452 1452 1452 1450 1448 1449 1450 1452 1456 1458 1458 1457 1453 1451 1451 1452 1454 1456 1457 1460 1462 1462 1463 1464 1466 1468 1469 1470 1470 1470 1471 1474 1474 1476 1479 1480 1482 1484 1484 1486 1489 1492 1493 1494 1496 1498 1500 1501 1506 1511 1506 1499 1501 1504 1504 1507 1510 1509 1506 1503 1500 1497 1495 1496 1497 1497 1496 1494 1496 1496 1485 1472 1472 1478 1474 1467 1466 1467 1468 1466 1463 1464 1467 1468 1467 1465 1463
1448 1450 1451 1452 1450 1447 1448 1448 1449 1452 1453 1451 1450 1448 1448 1449 1450 1454 1456 1455 1456 1457 1458 1460 1463 1466 1468 1468 1468 1468 1469 1471 1473 1474 1476 1478 1479 1481 1483 1485 1486 1488 1491 1492 1494 1495 1497 1499 1502 1506 1508 1502 1495 1497 1501 1503 1508 1509 1502 1494 1491 1492 1491 1491 1492 1490 1486 1487 1490 1490 1485 1478 1473 1474 1475 1470 1466 1466 1466 1464 1462 1460 1459 1462 1464 1463 1460 1457